Regional Weather Roundup
Issued by NWS Little Rock, AR

Home | Current Version | Previous Version | Graphics & Text | Print | Product List | Glossary On
Versions: 1 2 3 4 5 6 7 8 9 10 11 12 13 14 15 16 17 18 19 20 21 22 23 24 25 26 27 28 29 30 31 32 33 34 35 36 37 38 39 40 41 42 43 44 45 46 47 48 49 50
000
ASUS44 KLZK 161105
RWRLZK

WEATHER ROUNDUP FOR ARKANSAS
NATIONAL WEATHER SERVICE LITTLE ROCK AR
500 AM CST SAT DEC 16 2017

NOTE: "FAIR" INDICATES FEW OR NO CLOUDS BELOW 12,000 FEET WITH NO
SIGNIFICANT WEATHER AND/OR OBSTRUCTIONS TO VISIBILITY.

ARZ001-003-010-029-161200-
NORTHWEST ARKANSAS

CITY           SKY/WX    TMP DP  RH WIND       PRES   REMARKS
FAYETTEVILLE   CLEAR     36  26  67 SW9       30.07F
FORT SMITH     CLOUDY    26  25  96 CALM      30.12F
HARRISON       CLOUDY    34  25  69 S7        30.05F WCI  28
BENTONVILLE    CLOUDY    35  23  61 S8        30.06F WCI  29
ROGERS         CLOUDY    36  24  62 S13       30.05F
SILOAM SPGS    CLOUDY    33  24  69 S10       30.06F WCI  25
HIGHFILL       CLOUDY    35  24  64 S7        30.05F WCI  29
$$

ARZ004-005-016-161200-
NORTH CENTRAL ARKANSAS

CITY           SKY/WX    TMP DP  RH WIND       PRES   REMARKS
BATESVILLE     CLOUDY    36  28  73 SE7       30.13F
FLIPPIN        CLOUDY    33  26  75 SW5       30.09S WCI  29
MTN HOME       CLOUDY    34  27  75 SW5       30.07  WCI  30
$$

ARZ040-041-161200-
WEST CENTRAL ARKANSAS

CITY           SKY/WX    TMP DP  RH WIND       PRES   REMARKS
MENA           CLOUDY    30  28  93 CALM      30.14S
MOUNT IDA      CLOUDY    26  24  92 CALM      30.13S
$$

ARZ009-017-025-026-028-161200-
NORTHEAST ARKANSAS

CITY           SKY/WX    TMP DP  RH WIND       PRES   REMARKS
JONESBORO      CLOUDY    33  29  85 S8        30.14F WCI  26
NEWPORT        CLOUDY    31  29  92 S15       30.14F WCI  20
WALNUT RIDGE   CLOUDY    29  27  92 S7        30.13F WCI  22
BLYTHEVILLE    CLOUDY    33  28  81 S8        30.16F WCI  26
$$

ARZ022-023-033-042-044-161200-
CENTRAL ARKANSAS

CITY           SKY/WX    TMP DP  RH WIND       PRES   REMARKS
LITTLE ROCK    CLOUDY    29  27  92 CALM      30.18F
N LITTLE ROCK    N/A     33  29  85 CALM      30.20S
JACKSONVILLE   CLOUDY    28  25  89 S3        30.15F
SEARCY         CLOUDY    24  24 100 CALM      30.17S
HOT SPRINGS    CLOUDY    29  27  92 NE3       30.17S
RUSSELLVILLE   CLOUDY    25  24  96 CALM      30.13F
CLINTON        FAIR      21  21 100 CALM      30.14F
$$

ARZ036-161200-
EAST ARKANSAS

CITY           SKY/WX    TMP DP  RH WIND       PRES   REMARKS
WEST MEMPHIS   CLOUDY    30  27  88 S8        30.18F WCI  22
$$

ARZ050-053-066-070-073-161200-
SOUTHWEST ARKANSAS

CITY           SKY/WX    TMP DP  RH WIND       PRES   REMARKS
ARKADELPHIA    FAIR      23  20  88 CALM      30.21S
CAMDEN         CLOUDY    27  23  86 CALM      30.21S
TEXARKANA      CLOUDY    32  28  85 S6        30.19S WCI  26
EL DORADO      CLOUDY    27  27 100 CALM      30.22S
DE QUEEN       CLOUDY    24  23  96 CALM      30.17S
$$

ARZ056-057-069-161200-
SOUTHEAST ARKANSAS

CITY           SKY/WX    TMP DP  RH WIND       PRES   REMARKS
PINE BLUFF     CLOUDY    32  28  85 S7        30.21S WCI  26
STUTTGART      CLOUDY    34  29  82 S10       30.20S WCI  26
MONTICELLO     CLOUDY    40  30  67 SW7       30.22F

$$





USA.gov is the U.S. government's official web portal to all federal, state and local government web resources and services.